Location: Bellerive
(46.9237°N, 7.0223°E)
Time: 23:08:08
(UTC+00:00)

Cosmos 2228 - Pass Details

Date: 09 April 2020
Orbit: 588 x 619 km, 82.5° (Epoch: 29 May)

Event Time Altitude Azimuth Distance (km) Brightness Sun altitude
Rises 19:06:17 0° 190° (S) 2,836 6.3 -9.5°
Reaches altitude 10° 19:08:28 10° 191° (S) 1,943 5.5 -9.9°
Maximum altitude 19:12:47 82° 278° (W) 619 3.1 -10.6°
Drops below altitude 10° 19:17:10 10° 8° (N) 1,978 5.9 -11.2°
Sets 19:19:25 0° 9° (N) 2,892 6.7 -11.6°
